Time,TemperatureF,DewpointF,PressureIn,WindDirection,WindDirectionDegrees,WindSpeedMPH,WindSpeedGustMPH,Humidity,HourlyPrecipIn,Conditions,Clouds,dailyrainin,SoftwareType,DateUTC
2015-08-27 00:02:00,68.5,58.3,30.02,NNW,331,0.0,4.0,70,0.00,,---,0.00,VWS V15.00,2015-08-27 04:02:00,
2015-08-27 00:08:00,68.4,58.2,30.02,NW,315,0.0,6.0,70,0.00,,---,0.00,VWS V15.00,2015-08-27 04:08:00,
2015-08-27 00:13:00,68.3,58.2,30.02,NW,309,0.0,4.0,70,0.00,,---,0.00,VWS V15.00,2015-08-27 04:13:00,
2015-08-27 00:18:00,68.2,58.0,30.02,NW,318,0.0,5.0,70,0.00,,---,0.00,VWS V15.00,2015-08-27 04:18:00,
2015-08-27 00:23:00,68.1,58.0,30.02,NW,317,0.0,5.0,70,0.00,,---,0.00,VWS V15.00,2015-08-27 04:23:00,
2015-08-27 00:28:00,67.9,57.8,30.02,NW,311,0.0,6.0,70,0.00,,---,0.00,VWS V15.00,2015-08-27 04:28:00,
2015-08-27 00:33:00,67.8,58.1,30.02,WNW,300,0.0,5.0,71,0.00,,---,0.00,VWS V15.00,2015-08-27 04:33:00,
2015-08-27 00:38:00,67.7,58.0,30.02,NW,318,0.0,2.0,71,0.00,,---,0.00,VWS V15.00,2015-08-27 04:38:00,
2015-08-27 00:43:00,67.5,57.8,30.02,NNW,329,0.0,3.0,71,0.00,,---,0.00,VWS V15.00,2015-08-27 04:43:00,
2015-08-27 00:48:00,67.5,58.2,30.02,North,360,0.0,5.0,72,0.00,,---,0.00,VWS V15.00,2015-08-27 04:48:00,
2015-08-27 00:53:00,67.4,58.1,30.02,NW,326,0.0,5.0,72,0.00,,---,0.00,VWS V15.00,2015-08-27 04:53:00,
2015-08-27 00:58:00,67.4,58.1,30.02,West,281,0.0,4.0,72,0.00,,---,0.00,VWS V15.00,2015-08-27 04:58:00,
2015-08-27 01:03:00,67.4,58.1,30.02,NW,318,0.0,2.0,72,0.00,,---,0.00,VWS V15.00,2015-08-27 05:03:00,
2015-08-27 01:08:00,67.4,58.5,30.02,West,277,2.0,7.0,73,0.00,,---,0.00,VWS V15.00,2015-08-27 05:08:00,
2015-08-27 01:13:00,67.3,58.7,30.02,West,281,0.0,4.0,74,0.00,,---,0.00,VWS V15.00,2015-08-27 05:13:00,
2015-08-27 01:18:00,67.2,58.6,30.02,WNW,292,0.0,6.0,74,0.00,,---,0.00,VWS V15.00,2015-08-27 05:18:00,
2015-08-27 01:23:00,67.1,58.5,30.01,NNW,333,2.0,4.0,74,0.00,,---,0.00,VWS V15.00,2015-08-27 05:23:00,
2015-08-27 01:28:00,67.0,58.5,30.01,NW,305,0.0,5.0,74,0.00,,---,0.00,VWS V15.00,2015-08-27 05:28:00,
2015-08-27 01:33:00,66.9,58.3,30.01,NW,307,0.0,4.0,74,0.00,,---,0.00,VWS V15.00,2015-08-27 05:33:00,
2015-08-27 01:38:00,66.8,58.3,30.01,WNW,295,3.0,3.0,74,0.00,,---,0.00,VWS V15.00,2015-08-27 05:38:00,
2015-08-27 01:43:00,66.7,58.2,30.01,WNW,284,0.0,4.0,74,0.00,,---,0.00,VWS V15.00,2015-08-27 05:43:00,
2015-08-27 01:48:00,66.5,58.0,30.01,WNW,298,0.0,5.0,74,0.00,,---,0.00,VWS V15.00,2015-08-27 05:48:00,
2015-08-27 01:53:00,66.4,57.9,30.01,NW,316,0.0,3.0,74,0.00,,---,0.00,VWS V15.00,2015-08-27 05:53:00,
2015-08-27 01:55:00,66.3,58.2,30.01,WNW,295,1.0,5.0,75,0.00,,---,0.00,VWS V15.00,2015-08-27 05:55:00,
2015-08-27 02:00:00,66.2,58.0,30.01,NW,311,0.0,3.0,75,0.00,,---,0.00,VWS V15.00,2015-08-27 06:00:00,
2015-08-27 02:05:00,66.1,58.3,30.01,West,280,0.0,4.0,76,0.00,,---,0.00,VWS V15.00,2015-08-27 06:05:00,
2015-08-27 02:10:00,66.0,58.2,30.01,West,267,1.0,2.0,76,0.00,,---,0.00,VWS V15.00,2015-08-27 06:10:00,
2015-08-27 02:15:00,65.8,58.0,30.01,WNW,293,1.0,1.0,76,0.00,,---,0.00,VWS V15.00,2015-08-27 06:15:00,
2015-08-27 02:20:00,65.7,58.3,30.01,WNW,302,0.0,2.0,77,0.00,,---,0.00,VWS V15.00,2015-08-27 06:20:00,
2015-08-27 02:25:00,65.6,58.6,30.01,WNW,284,3.0,7.0,78,0.00,,---,0.00,VWS V15.00,2015-08-27 06:25:00,
2015-08-27 02:30:00,65.4,58.4,30.00,NW,312,0.0,1.0,78,0.00,,---,0.00,VWS V15.00,2015-08-27 06:30:00,
2015-08-27 02:35:00,65.3,58.3,30.00,North,355,0.0,1.0,78,0.00,,---,0.00,VWS V15.00,2015-08-27 06:35:00,
2015-08-27 02:40:00,65.1,58.1,30.00,NW,324,0.0,1.0,78,0.00,,---,0.00,VWS V15.00,2015-08-27 06:40:00,
2015-08-27 02:45:00,65.0,58.0,30.00,NW,315,1.0,4.0,78,0.00,,---,0.00,VWS V15.00,2015-08-27 06:45:00,
2015-08-27 02:50:00,64.9,57.9,30.00,NNW,342,0.0,5.0,78,0.00,,---,0.00,VWS V15.00,2015-08-27 06:50:00,
2015-08-27 02:55:00,64.8,58.1,30.00,WNW,286,0.0,3.0,79,0.00,,---,0.00,VWS V15.00,2015-08-27 06:55:00,
2015-08-27 03:00:00,64.7,58.0,30.00,NW,320,0.0,2.0,79,0.00,,---,0.00,VWS V15.00,2015-08-27 07:00:00,
2015-08-27 03:05:00,64.6,58.0,30.00,North,349,0.0,1.0,79,0.00,,---,0.00,VWS V15.00,2015-08-27 07:05:00,
2015-08-27 03:10:00,64.4,57.8,30.00,NW,314,0.0,3.0,79,0.00,,---,0.00,VWS V15.00,2015-08-27 07:10:00,
2015-08-27 03:15:00,64.3,57.7,30.00,North,360,0.0,4.0,79,0.00,,---,0.00,VWS V15.00,2015-08-27 07:15:00,
2015-08-27 03:20:00,64.2,57.9,30.00,NW,321,1.0,4.0,80,0.00,,---,0.00,VWS V15.00,2015-08-27 07:20:00,
2015-08-27 03:25:00,64.1,57.8,30.00,North,360,0.0,3.0,80,0.00,,---,0.00,VWS V15.00,2015-08-27 07:25:00,
2015-08-27 03:30:00,64.1,57.8,30.00,WNW,302,0.0,1.0,80,0.00,,---,0.00,VWS V15.00,2015-08-27 07:30:00,
2015-08-27 03:35:00,64.0,58.1,30.00,North,355,1.0,3.0,81,0.00,,---,0.00,VWS V15.00,2015-08-27 07:35:00,
2015-08-27 03:40:00,64.0,58.1,30.00,WNW,291,1.0,3.0,81,0.00,,---,0.00,VWS V15.00,2015-08-27 07:40:00,
2015-08-27 03:45:00,63.9,58.0,30.00,NW,311,0.0,4.0,81,0.00,,---,0.00,VWS V15.00,2015-08-27 07:45:00,
2015-08-27 03:50:00,63.9,58.3,30.00,WNW,298,0.0,5.0,82,0.00,,---,0.00,VWS V15.00,2015-08-27 07:50:00,
2015-08-27 03:55:00,63.8,58.2,30.01,West,279,1.0,3.0,82,0.00,,---,0.00,VWS V15.00,2015-08-27 07:55:00,
2015-08-27 04:00:00,63.7,58.1,30.01,WNW,292,0.0,1.0,82,0.00,,---,0.00,VWS V15.00,2015-08-27 08:00:00,
2015-08-27 04:06:00,63.6,58.0,30.01,NW,321,0.0,2.0,82,0.00,,---,0.00,VWS V15.00,2015-08-27 08:06:00,
2015-08-27 04:11:00,63.5,58.2,30.01,WNW,295,0.0,0.0,83,0.00,,---,0.00,VWS V15.00,2015-08-27 08:11:00,
2015-08-27 04:16:00,63.4,58.2,30.01,NW,317,2.0,3.0,83,0.00,,---,0.00,VWS V15.00,2015-08-27 08:16:00,
2015-08-27 04:21:00,63.4,58.2,30.01,NW,318,0.0,4.0,83,0.00,,---,0.00,VWS V15.00,2015-08-27 08:21:00,
2015-08-27 04:26:00,63.3,58.1,30.01,NW,314,1.0,5.0,83,0.00,,---,0.00,VWS V15.00,2015-08-27 08:26:00,
2015-08-27 04:31:00,63.2,58.0,30.01,WNW,296,0.0,4.0,83,0.00,,---,0.00,VWS V15.00,2015-08-27 08:31:00,
2015-08-27 04:36:00,63.1,57.9,30.01,NNW,341,1.0,5.0,83,0.00,,---,0.00,VWS V15.00,2015-08-27 08:36:00,
2015-08-27 04:41:00,63.1,58.2,30.01,NNW,327,1.0,4.0,84,0.00,,---,0.00,VWS V15.00,2015-08-27 08:41:00,
2015-08-27 04:46:00,63.0,58.1,30.01,WNW,288,0.0,3.0,84,0.00,,---,0.00,VWS V15.00,2015-08-27 08:46:00,
2015-08-27 04:51:00,62.9,58.0,30.01,WNW,297,1.0,5.0,84,0.00,,---,0.00,VWS V15.00,2015-08-27 08:51:00,
2015-08-27 04:56:00,62.8,57.9,30.01,WNW,295,2.0,3.0,84,0.00,,---,0.00,VWS V15.00,2015-08-27 08:56:00,
2015-08-27 05:01:00,62.8,57.9,30.01,West,277,0.0,4.0,84,0.00,,---,0.00,VWS V15.00,2015-08-27 09:01:00,
2015-08-27 05:06:00,62.7,57.8,30.01,WNW,300,0.0,1.0,84,0.00,,---,0.00,VWS V15.00,2015-08-27 09:06:00,
2015-08-27 05:11:00,62.6,57.7,30.01,West,274,0.0,5.0,84,0.00,,---,0.00,VWS V15.00,2015-08-27 09:11:00,
2015-08-27 05:16:00,62.5,57.6,30.01,NNW,343,0.0,2.0,84,0.00,,---,0.00,VWS V15.00,2015-08-27 09:16:00,
2015-08-27 05:21:00,62.4,57.5,30.01,WNW,283,0.0,1.0,84,0.00,,---,0.00,VWS V15.00,2015-08-27 09:21:00,
2015-08-27 05:26:00,62.3,57.7,30.01,NNW,330,0.0,2.0,85,0.00,,---,0.00,VWS V15.00,2015-08-27 09:26:00,
2015-08-27 05:31:00,62.2,57.6,30.01,NNW,344,0.0,1.0,85,0.00,,---,0.00,VWS V15.00,2015-08-27 09:31:00,
2015-08-27 05:36:00,62.1,57.5,30.01,NNW,337,0.0,2.0,85,0.00,,---,0.00,VWS V15.00,2015-08-27 09:36:00,
2015-08-27 05:41:00,62.1,57.5,30.01,NNW,332,0.0,1.0,85,0.00,,---,0.00,VWS V15.00,2015-08-27 09:41:00,
2015-08-27 05:46:00,62.0,57.5,30.01,NNW,327,0.0,1.0,85,0.00,,---,0.00,VWS V15.00,2015-08-27 09:46:00,
2015-08-27 05:51:00,62.0,57.5,30.02,NNW,345,0.0,1.0,85,0.00,,---,0.00,VWS V15.00,2015-08-27 09:51:00,
2015-08-27 05:56:00,61.9,57.7,30.02,NW,315,0.0,1.0,86,0.00,,---,0.00,VWS V15.00,2015-08-27 09:56:00,
2015-08-27 06:01:00,61.9,57.7,30.02,NW,321,0.0,1.0,86,0.00,,---,0.00,VWS V15.00,2015-08-27 10:01:00,
2015-08-27 06:06:00,61.8,57.6,30.02,NW,319,0.0,4.0,86,0.00,,---,0.00,VWS V15.00,2015-08-27 10:06:00,
2015-08-27 06:11:00,61.8,57.6,30.02,NW,317,0.0,0.0,86,0.00,,---,0.00,VWS V15.00,2015-08-27 10:11:00,
2015-08-27 06:16:00,61.7,57.5,30.02,NW,307,0.0,1.0,86,0.00,,---,0.00,VWS V15.00,2015-08-27 10:16:00,
2015-08-27 06:21:00,61.7,57.5,30.02,NW,315,0.0,2.0,86,0.00,,---,0.00,VWS V15.00,2015-08-27 10:21:00,
2015-08-27 06:26:00,61.6,57.4,30.03,WNW,288,0.0,3.0,86,0.00,,---,0.00,VWS V15.00,2015-08-27 10:26:00,
2015-08-27 06:31:00,61.6,57.4,30.03,NNW,344,0.0,5.0,86,0.00,,---,0.00,VWS V15.00,2015-08-27 10:31:00,
2015-08-27 06:36:00,61.6,57.7,30.03,NNW,334,3.0,4.0,87,0.00,,---,0.00,VWS V15.00,2015-08-27 10:36:00,
2015-08-27 06:41:00,61.6,57.7,30.03,NNE,13,1.0,3.0,87,0.00,,---,0.00,VWS V15.00,2015-08-27 10:41:00,
2015-08-27 06:46:00,61.7,57.8,30.03,NW,313,0.0,2.0,87,0.00,,---,0.00,VWS V15.00,2015-08-27 10:46:00,
2015-08-27 06:51:00,61.8,57.9,30.03,NNW,342,0.0,4.0,87,0.00,,---,0.00,VWS V15.00,2015-08-27 10:51:00,
2015-08-27 06:56:00,61.9,58.0,30.04,WNW,286,0.0,4.0,87,0.00,,---,0.00,VWS V15.00,2015-08-27 10:56:00,
2015-08-27 07:01:00,62.1,58.2,30.04,WNW,294,0.0,1.0,87,0.00,,---,0.00,VWS V15.00,2015-08-27 11:01:00,
2015-08-27 07:06:00,62.2,58.3,30.04,NW,305,0.0,2.0,87,0.00,,---,0.00,VWS V15.00,2015-08-27 11:06:00,
2015-08-27 07:11:00,62.3,58.4,30.04,NW,325,0.0,2.0,87,0.00,,---,0.00,VWS V15.00,2015-08-27 11:11:00,
2015-08-27 07:16:00,62.4,58.5,30.05,NW,304,0.0,2.0,87,0.00,,---,0.00,VWS V15.00,2015-08-27 11:16:00,
2015-08-27 07:21:00,62.6,58.7,30.05,NW,319,0.0,1.0,87,0.00,,---,0.00,VWS V15.00,2015-08-27 11:21:00,
2015-08-27 07:26:00,62.8,58.9,30.05,NW,318,0.0,2.0,87,0.00,,---,0.00,VWS V15.00,2015-08-27 11:26:00,
2015-08-27 07:31:00,63.0,58.8,30.05,NNW,345,0.0,3.0,86,0.00,,---,0.00,VWS V15.00,2015-08-27 11:31:00,
2015-08-27 07:36:00,63.2,59.0,30.05,NNW,340,0.0,3.0,86,0.00,,---,0.00,VWS V15.00,2015-08-27 11:36:00,
2015-08-27 07:41:00,63.5,58.9,30.05,WNW,296,0.0,0.0,85,0.00,,---,0.00,VWS V15.00,2015-08-27 11:41:00,
2015-08-27 07:46:00,63.7,59.1,30.05,NW,306,2.0,2.0,85,0.00,,---,0.00,VWS V15.00,2015-08-27 11:46:00,
2015-08-27 07:51:00,63.9,59.0,30.05,NW,304,0.0,2.0,84,0.00,,---,0.00,VWS V15.00,2015-08-27 11:51:00,
2015-08-27 07:56:00,64.2,58.9,30.05,WNW,284,1.0,5.0,83,0.00,,---,0.00,VWS V15.00,2015-08-27 11:56:00,
2015-08-27 08:02:00,64.5,59.2,30.06,West,274,0.0,5.0,83,0.00,,---,0.00,VWS V15.00,2015-08-27 12:02:00,
2015-08-27 08:07:00,64.7,59.1,30.05,NE,50,2.0,5.0,82,0.00,,---,0.00,VWS V15.00,2015-08-27 12:07:00,
2015-08-27 08:12:00,65.1,59.5,30.05,NNW,330,2.0,2.0,82,0.00,,---,0.00,VWS V15.00,2015-08-27 12:12:00,
2015-08-27 08:17:00,65.5,59.5,30.05,NNW,343,0.0,4.0,81,0.00,,---,0.00,VWS V15.00,2015-08-27 12:17:00,
2015-08-27 08:22:00,66.0,60.0,30.05,NNE,22,0.0,3.0,81,0.00,,---,0.00,VWS V15.00,2015-08-27 12:22:00,
2015-08-27 08:27:00,66.6,60.2,30.05,NW,304,0.0,0.0,80,0.00,,---,0.00,VWS V15.00,2015-08-27 12:27:00,
2015-08-27 08:32:00,67.1,60.4,30.05,North,9,0.0,1.0,79,0.00,,---,0.00,VWS V15.00,2015-08-27 12:32:00,
2015-08-27 08:37:00,67.5,60.4,30.05,NW,306,2.0,2.0,78,0.00,,---,0.00,VWS V15.00,2015-08-27 12:37:00,
2015-08-27 08:42:00,67.8,60.3,30.05,North,360,1.0,3.0,77,0.00,,---,0.00,VWS V15.00,2015-08-27 12:42:00,
2015-08-27 08:47:00,68.1,60.6,30.05,NNW,345,0.0,3.0,77,0.00,,---,0.00,VWS V15.00,2015-08-27 12:47:00,
2015-08-27 08:52:00,68.5,60.6,30.05,NE,47,0.0,3.0,76,0.00,,---,0.00,VWS V15.00,2015-08-27 12:52:00,
2015-08-27 08:57:00,69.0,60.8,30.06,NE,50,0.0,1.0,75,0.00,,---,0.00,VWS V15.00,2015-08-27 12:57:00,
2015-08-27 09:02:00,69.4,60.8,30.06,NNE,22,0.0,4.0,74,0.00,,---,0.00,VWS V15.00,2015-08-27 13:02:00,
2015-08-27 09:07:00,69.5,60.5,30.06,NW,324,0.0,5.0,73,0.00,,---,0.00,VWS V15.00,2015-08-27 13:07:00,
2015-08-27 09:12:00,69.5,60.5,30.06,NW,325,1.0,7.0,73,0.00,,---,0.00,VWS V15.00,2015-08-27 13:12:00,
2015-08-27 09:17:00,69.6,60.6,30.06,NNE,15,0.0,4.0,73,0.00,,---,0.00,VWS V15.00,2015-08-27 13:17:00,
2015-08-27 09:22:00,69.9,60.9,30.06,NNW,342,1.0,2.0,73,0.00,,---,0.00,VWS V15.00,2015-08-27 13:22:00,
2015-08-27 09:27:00,70.5,61.4,30.06,NNE,17,3.0,3.0,73,0.00,,---,0.00,VWS V15.00,2015-08-27 13:27:00,
2015-08-27 09:32:00,70.9,61.0,30.06,NNW,343,1.0,3.0,71,0.00,,---,0.00,VWS V15.00,2015-08-27 13:32:00,
2015-08-27 09:37:00,71.1,60.8,30.06,North,9,2.0,5.0,70,0.00,,---,0.00,VWS V15.00,2015-08-27 13:37:00,
2015-08-27 09:42:00,71.2,60.9,30.06,NNW,341,0.0,4.0,70,0.00,,---,0.00,VWS V15.00,2015-08-27 13:42:00,
2015-08-27 09:47:00,71.4,60.7,30.06,NNE,27,0.0,6.0,69,0.00,,---,0.00,VWS V15.00,2015-08-27 13:47:00,
2015-08-27 09:52:00,71.9,61.2,30.06,NNE,28,0.0,5.0,69,0.00,,---,0.00,VWS V15.00,2015-08-27 13:52:00,
2015-08-27 09:57:00,72.1,60.5,30.07,NE,39,0.0,6.0,67,0.00,,---,0.00,VWS V15.00,2015-08-27 13:57:00,
2015-08-27 10:02:00,72.4,61.2,30.07,NNE,29,1.0,3.0,68,0.00,,---,0.00,VWS V15.00,2015-08-27 14:02:00,
2015-08-27 10:07:00,72.6,61.0,30.07,NNE,14,2.0,2.0,67,0.00,,---,0.00,VWS V15.00,2015-08-27 14:07:00,
2015-08-27 10:12:00,72.7,60.7,30.06,East,92,0.0,4.0,66,0.00,,---,0.00,VWS V15.00,2015-08-27 14:12:00,
2015-08-27 10:22:00,73.4,61.4,30.07,ENE,68,0.0,1.0,66,0.00,,---,0.00,VWS V15.00,2015-08-27 14:22:00,
2015-08-27 10:27:00,73.8,61.3,30.07,ENE,74,0.0,0.0,65,0.00,,---,0.00,VWS V15.00,2015-08-27 14:27:00,
2015-08-27 10:32:00,73.7,60.8,30.07,NNW,328,1.0,3.0,64,0.00,,---,0.00,VWS V15.00,2015-08-27 14:32:00,
2015-08-27 10:37:00,73.6,60.7,30.07,NE,38,0.0,3.0,64,0.00,,---,0.00,VWS V15.00,2015-08-27 14:37:00,
2015-08-27 10:42:00,73.9,61.4,30.07,NE,54,0.0,4.0,65,0.00,,---,0.00,VWS V15.00,2015-08-27 14:42:00,
2015-08-27 10:47:00,74.5,61.1,30.07,NE,34,0.0,3.0,63,0.00,,---,0.00,VWS V15.00,2015-08-27 14:47:00,
2015-08-27 10:52:00,74.4,60.5,30.07,ESE,106,0.0,4.0,62,0.00,,---,0.00,VWS V15.00,2015-08-27 14:52:00,
2015-08-27 10:57:00,74.6,61.2,30.07,ESE,105,2.0,2.0,63,0.00,,---,0.00,VWS V15.00,2015-08-27 14:57:00,
2015-08-27 11:02:00,74.3,60.9,30.07,NNE,14,0.0,2.0,63,0.00,,---,0.00,VWS V15.00,2015-08-27 15:02:00,
2015-08-27 11:07:00,74.2,60.8,30.07,WNW,290,0.0,6.0,63,0.00,,---,0.00,VWS V15.00,2015-08-27 15:07:00,
2015-08-27 11:12:00,74.5,61.1,30.08,WNW,291,0.0,0.0,63,0.00,,---,0.00,VWS V15.00,2015-08-27 15:12:00,
2015-08-27 11:17:00,74.6,61.2,30.07,NE,34,0.0,4.0,63,0.00,,---,0.00,VWS V15.00,2015-08-27 15:17:00,
2015-08-27 11:22:00,74.7,60.8,30.07,West,263,0.0,4.0,62,0.00,,---,0.00,VWS V15.00,2015-08-27 15:22:00,
2015-08-27 11:27:00,74.7,60.8,30.07,West,266,0.0,2.0,62,0.00,,---,0.00,VWS V15.00,2015-08-27 15:27:00,
2015-08-27 11:32:00,74.8,60.9,30.07,NW,317,0.0,4.0,62,0.00,,---,0.00,VWS V15.00,2015-08-27 15:32:00,
2015-08-27 11:37:00,74.5,60.6,30.07,West,281,0.0,3.0,62,0.00,,---,0.00,VWS V15.00,2015-08-27 15:37:00,
2015-08-27 11:42:00,74.5,61.1,30.07,North,5,0.0,5.0,63,0.00,,---,0.00,VWS V15.00,2015-08-27 15:42:00,
2015-08-27 11:47:00,74.6,59.8,30.07,West,267,4.0,9.0,60,0.00,,---,0.00,VWS V15.00,2015-08-27 15:47:00,
2015-08-27 11:52:00,74.8,61.4,30.07,West,274,2.0,7.0,63,0.00,,---,0.00,VWS V15.00,2015-08-27 15:52:00,
2015-08-27 11:57:00,74.9,60.6,30.07,West,272,0.0,6.0,61,0.00,,---,0.00,VWS V15.00,2015-08-27 15:57:00,
2015-08-27 12:08:00,75.1,60.8,30.06,North,5,0.0,3.0,61,0.00,,---,0.00,VWS V15.00,2015-08-27 16:08:00,
2015-08-27 12:13:00,75.7,61.3,30.07,ENE,73,0.0,3.0,61,0.00,,---,0.00,VWS V15.00,2015-08-27 16:13:00,
2015-08-27 12:18:00,76.0,61.1,30.07,NNE,17,1.0,2.0,60,0.00,,---,0.00,VWS V15.00,2015-08-27 16:18:00,
2015-08-27 12:23:00,75.7,60.8,30.06,WNW,296,1.0,9.0,60,0.00,,---,0.00,VWS V15.00,2015-08-27 16:23:00,
2015-08-27 12:28:00,75.2,59.9,30.06,West,265,0.0,6.0,59,0.00,,---,0.00,VWS V15.00,2015-08-27 16:28:00,
2015-08-27 12:33:00,75.0,60.7,30.06,West,267,2.0,2.0,61,0.00,,---,0.00,VWS V15.00,2015-08-27 16:33:00,
2015-08-27 12:38:00,74.9,60.6,30.06,West,263,3.0,3.0,61,0.00,,---,0.00,VWS V15.00,2015-08-27 16:38:00,
2015-08-27 12:43:00,75.5,59.7,30.06,West,267,3.0,4.0,58,0.00,,---,0.00,VWS V15.00,2015-08-27 16:43:00,
2015-08-27 12:48:00,75.8,60.0,30.06,North,350,0.0,3.0,58,0.00,,---,0.00,VWS V15.00,2015-08-27 16:48:00,
2015-08-27 12:53:00,76.1,59.8,30.06,WNW,291,0.0,9.0,57,0.00,,---,0.00,VWS V15.00,2015-08-27 16:53:00,
2015-08-27 12:58:00,76.2,60.4,30.06,WNW,297,0.0,5.0,58,0.00,,---,0.00,VWS V15.00,2015-08-27 16:58:00,
2015-08-27 13:03:00,76.1,59.3,30.05,West,271,0.0,9.0,56,0.00,,---,0.00,VWS V15.00,2015-08-27 17:03:00,
2015-08-27 13:08:00,76.1,59.3,30.05,West,277,2.0,9.0,56,0.00,,---,0.00,VWS V15.00,2015-08-27 17:08:00,
2015-08-27 13:13:00,76.2,59.9,30.05,West,281,4.0,9.0,57,0.00,,---,0.00,VWS V15.00,2015-08-27 17:13:00,
2015-08-27 13:18:00,76.2,57.8,30.05,West,273,0.0,8.0,53,0.00,,---,0.00,VWS V15.00,2015-08-27 17:18:00,
2015-08-27 13:23:00,76.4,58.5,30.05,West,267,0.0,2.0,54,0.00,,---,0.00,VWS V15.00,2015-08-27 17:23:00,
2015-08-27 13:28:00,76.8,59.9,30.05,NNW,333,2.0,5.0,56,0.00,,---,0.00,VWS V15.00,2015-08-27 17:28:00,
2015-08-27 13:33:00,77.5,59.0,30.05,NNE,18,0.0,2.0,53,0.00,,---,0.00,VWS V15.00,2015-08-27 17:33:00,
2015-08-27 13:38:00,77.7,59.2,30.05,West,266,0.0,5.0,53,0.00,,---,0.00,VWS V15.00,2015-08-27 17:38:00,
2015-08-27 13:43:00,77.4,58.4,30.05,West,273,2.0,9.0,52,0.00,,---,0.00,VWS V15.00,2015-08-27 17:43:00,
2015-08-27 13:48:00,77.1,58.7,30.05,West,266,0.0,7.0,53,0.00,,---,0.00,VWS V15.00,2015-08-27 17:48:00,
2015-08-27 13:53:00,77.0,59.6,30.05,West,269,9.0,9.0,55,0.00,,---,0.00,VWS V15.00,2015-08-27 17:53:00,
2015-08-27 13:58:00,76.6,59.2,30.05,WNW,284,4.0,9.0,55,0.00,,---,0.00,VWS V15.00,2015-08-27 17:58:00,
2015-08-27 14:03:00,76.5,59.7,30.05,WNW,292,5.0,11.0,56,0.00,,---,0.00,VWS V15.00,2015-08-27 18:03:00,
2015-08-27 14:08:00,76.4,58.0,30.05,West,275,1.0,9.0,53,0.00,,---,0.00,VWS V15.00,2015-08-27 18:08:00,
2015-08-27 14:13:00,76.5,58.6,30.05,West,275,5.0,10.0,54,0.00,,---,0.00,VWS V15.00,2015-08-27 18:13:00,
2015-08-27 14:18:00,77.1,59.2,30.05,West,277,6.0,10.0,54,0.00,,---,0.00,VWS V15.00,2015-08-27 18:18:00,
2015-08-27 14:23:00,76.9,59.0,30.04,West,277,3.0,7.0,54,0.00,,---,0.00,VWS V15.00,2015-08-27 18:23:00,
2015-08-27 14:28:00,77.0,59.6,30.04,West,273,0.0,6.0,55,0.00,,---,0.00,VWS V15.00,2015-08-27 18:28:00,
2015-08-27 14:33:00,77.5,59.6,30.04,West,273,3.0,5.0,54,0.00,,---,0.00,VWS V15.00,2015-08-27 18:33:00,
2015-08-27 14:38:00,78.3,60.3,30.04,West,270,0.0,5.0,54,0.00,,---,0.00,VWS V15.00,2015-08-27 18:38:00,
2015-08-27 14:43:00,79.2,59.5,30.04,WSW,243,1.0,2.0,51,0.00,,---,0.00,VWS V15.00,2015-08-27 18:43:00,
2015-08-27 14:48:00,78.3,60.8,30.04,SE,134,0.0,6.0,55,0.00,,---,0.00,VWS V15.00,2015-08-27 18:48:00,
2015-08-27 14:53:00,77.6,62.2,30.04,SE,135,0.0,0.0,59,0.00,,---,0.00,VWS V15.00,2015-08-27 18:53:00,
2015-08-27 14:58:00,77.4,62.0,30.04,SE,135,0.0,0.0,59,0.00,,---,0.00,VWS V15.00,2015-08-27 18:58:00,
2015-08-27 15:03:00,77.3,61.9,30.04,SE,135,0.0,2.0,59,0.00,,---,0.00,VWS V15.00,2015-08-27 19:03:00,
2015-08-27 15:08:00,77.5,62.1,30.04,SE,135,0.0,3.0,59,0.00,,---,0.00,VWS V15.00,2015-08-27 19:08:00,
2015-08-27 15:13:00,77.9,62.4,30.04,SSW,196,0.0,2.0,59,0.00,,---,0.00,VWS V15.00,2015-08-27 19:13:00,
2015-08-27 15:18:00,78.6,61.1,30.04,West,268,1.0,4.0,55,0.00,,---,0.00,VWS V15.00,2015-08-27 19:18:00,
2015-08-27 15:23:00,79.2,56.7,30.04,WNW,301,1.0,10.0,46,0.00,,---,0.00,VWS V15.00,2015-08-27 19:23:00,
2015-08-27 15:28:00,78.9,57.6,30.03,West,268,3.0,8.0,48,0.00,,---,0.00,VWS V15.00,2015-08-27 19:28:00,
2015-08-27 15:33:00,78.7,58.5,30.03,WNW,286,3.0,6.0,50,0.00,,---,0.00,VWS V15.00,2015-08-27 19:33:00,
2015-08-27 15:38:00,78.7,59.1,30.03,West,272,5.0,7.0,51,0.00,,---,0.00,VWS V15.00,2015-08-27 19:38:00,
2015-08-27 15:43:00,78.4,57.1,30.03,West,269,3.0,9.0,48,0.00,,---,0.00,VWS V15.00,2015-08-27 19:43:00,
2015-08-27 15:48:00,78.6,57.3,30.03,WNW,298,3.0,10.0,48,0.00,,---,0.00,VWS V15.00,2015-08-27 19:48:00,
2015-08-27 15:53:00,79.3,58.5,30.03,NNW,347,7.0,9.0,49,0.00,,---,0.00,VWS V15.00,2015-08-27 19:53:00,
2015-08-27 15:59:00,79.2,58.4,30.02,NNW,342,0.0,10.0,49,0.00,,---,0.00,VWS V15.00,2015-08-27 19:59:00,
2015-08-27 16:04:00,79.5,59.8,30.02,East,101,0.0,3.0,51,0.00,,---,0.00,VWS V15.00,2015-08-27 20:04:00,
2015-08-27 16:09:00,80.0,58.6,30.02,NNE,28,2.0,6.0,48,0.00,,---,0.00,VWS V15.00,2015-08-27 20:09:00,
2015-08-27 16:14:00,79.9,58.5,30.02,NE,44,0.0,5.0,48,0.00,,---,0.00,VWS V15.00,2015-08-27 20:14:00,
2015-08-27 16:19:00,80.2,59.3,30.03,NE,39,4.0,4.0,49,0.00,,---,0.00,VWS V15.00,2015-08-27 20:19:00,
2015-08-27 16:24:00,80.0,60.3,30.03,North,355,4.0,7.0,51,0.00,,---,0.00,VWS V15.00,2015-08-27 20:24:00,
2015-08-27 16:29:00,80.1,59.2,30.03,NW,315,5.0,9.0,49,0.00,,---,0.00,VWS V15.00,2015-08-27 20:29:00,
2015-08-27 16:34:00,80.3,59.4,30.03,ENE,63,2.0,8.0,49,0.00,,---,0.00,VWS V15.00,2015-08-27 20:34:00,
2015-08-27 16:39:00,80.3,58.8,30.03,NNW,336,2.0,5.0,48,0.00,,---,0.00,VWS V15.00,2015-08-27 20:39:00,
2015-08-27 16:44:00,80.2,58.2,30.03,NNW,342,0.0,4.0,47,0.00,,---,0.00,VWS V15.00,2015-08-27 20:44:00,
2015-08-27 16:49:00,80.4,58.3,30.03,NE,43,0.0,4.0,47,0.00,,---,0.00,VWS V15.00,2015-08-27 20:49:00,
2015-08-27 16:54:00,81.0,60.6,30.03,West,266,0.0,4.0,50,0.00,,---,0.00,VWS V15.00,2015-08-27 20:54:00,
2015-08-27 16:59:00,80.5,57.8,30.03,West,281,3.0,10.0,46,0.00,,---,0.00,VWS V15.00,2015-08-27 20:59:00,
2015-08-27 17:04:00,79.5,58.1,30.03,WNW,286,1.0,4.0,48,0.00,,---,0.00,VWS V15.00,2015-08-27 21:04:00,
2015-08-27 17:09:00,79.8,60.1,30.03,West,281,0.0,0.0,51,0.00,,---,0.00,VWS V15.00,2015-08-27 21:09:00,
2015-08-27 17:14:00,79.7,58.3,30.03,NNE,19,1.0,1.0,48,0.00,,---,0.00,VWS V15.00,2015-08-27 21:14:00,
2015-08-27 17:19:00,79.2,58.4,30.03,NNE,30,2.0,2.0,49,0.00,,---,0.00,VWS V15.00,2015-08-27 21:19:00,
2015-08-27 17:24:00,79.1,58.9,30.03,NNE,19,0.0,0.0,50,0.00,,---,0.00,VWS V15.00,2015-08-27 21:24:00,
2015-08-27 17:29:00,79.0,58.2,30.03,NNE,22,3.0,3.0,49,0.00,,---,0.00,VWS V15.00,2015-08-27 21:29:00,
2015-08-27 17:34:00,79.0,57.7,30.03,North,355,0.0,0.0,48,0.00,,---,0.00,VWS V15.00,2015-08-27 21:34:00,
2015-08-27 17:39:00,79.2,57.8,30.03,NNE,26,0.0,0.0,48,0.00,,---,0.00,VWS V15.00,2015-08-27 21:39:00,
2015-08-27 17:44:00,79.6,57.6,30.03,West,279,3.0,3.0,47,0.00,,---,0.00,VWS V15.00,2015-08-27 21:44:00,
2015-08-27 17:49:00,79.3,57.9,30.03,North,349,0.0,1.0,48,0.00,,---,0.00,VWS V15.00,2015-08-27 21:49:00,
2015-08-27 17:54:00,79.1,58.3,30.04,NNW,336,0.0,0.0,49,0.00,,---,0.00,VWS V15.00,2015-08-27 21:54:00,
2015-08-27 17:59:00,79.6,59.3,30.04,NNW,340,0.0,0.0,50,0.00,,---,0.00,VWS V15.00,2015-08-27 21:59:00,
2015-08-27 18:04:00,79.5,58.7,30.04,NNW,338,0.0,1.0,49,0.00,,---,0.00,VWS V15.00,2015-08-27 22:04:00,
2015-08-27 18:09:00,79.3,59.1,30.04,NNE,28,0.0,0.0,50,0.00,,---,0.00,VWS V15.00,2015-08-27 22:09:00,
2015-08-27 18:14:00,78.5,58.3,30.04,NNE,23,2.0,2.0,50,0.00,,---,0.00,VWS V15.00,2015-08-27 22:14:00,
2015-08-27 18:19:00,78.0,58.4,30.04,NNE,32,0.0,1.0,51,0.00,,---,0.00,VWS V15.00,2015-08-27 22:19:00,
2015-08-27 18:24:00,77.7,58.7,30.04,NNW,344,0.0,0.0,52,0.00,,---,0.00,VWS V15.00,2015-08-27 22:24:00,
2015-08-27 18:29:00,77.9,58.9,30.04,NW,323,0.0,0.0,52,0.00,,---,0.00,VWS V15.00,2015-08-27 22:29:00,
2015-08-27 18:34:00,78.3,59.8,30.04,NNE,24,0.0,0.0,53,0.00,,---,0.00,VWS V15.00,2015-08-27 22:34:00,
2015-08-27 18:39:00,78.4,59.3,30.04,North,355,0.0,0.0,52,0.00,,---,0.00,VWS V15.00,2015-08-27 22:39:00,
2015-08-27 18:44:00,78.2,58.6,30.04,NNW,343,0.0,1.0,51,0.00,,---,0.00,VWS V15.00,2015-08-27 22:44:00,
2015-08-27 18:49:00,77.9,58.9,30.04,North,355,0.0,0.0,52,0.00,,---,0.00,VWS V15.00,2015-08-27 22:49:00,
2015-08-27 18:54:00,77.9,58.9,30.04,North,9,0.0,4.0,52,0.00,,---,0.00,VWS V15.00,2015-08-27 22:54:00,
2015-08-27 18:59:00,77.4,58.4,30.04,NE,36,0.0,2.0,52,0.00,,---,0.00,VWS V15.00,2015-08-27 22:59:00,
2015-08-27 19:04:00,77.1,58.7,30.04,WNW,290,1.0,2.0,53,0.00,,---,0.00,VWS V15.00,2015-08-27 23:04:00,
2015-08-27 19:09:00,76.9,58.0,30.04,NW,323,0.0,5.0,52,0.00,,---,0.00,VWS V15.00,2015-08-27 23:09:00,
2015-08-27 19:14:00,76.7,58.3,30.04,NNE,13,0.0,2.0,53,0.00,,---,0.00,VWS V15.00,2015-08-27 23:14:00,
2015-08-27 19:19:00,76.5,58.6,30.04,NNE,13,0.0,0.0,54,0.00,,---,0.00,VWS V15.00,2015-08-27 23:19:00,
2015-08-27 19:24:00,76.3,59.0,30.04,NNE,20,0.0,0.0,55,0.00,,---,0.00,VWS V15.00,2015-08-27 23:24:00,
2015-08-27 19:29:00,76.0,58.7,30.04,NNE,17,0.0,1.0,55,0.00,,---,0.00,VWS V15.00,2015-08-27 23:29:00,
2015-08-27 19:34:00,75.6,58.3,30.04,NW,323,0.0,5.0,55,0.00,,---,0.00,VWS V15.00,2015-08-27 23:34:00,
2015-08-27 19:39:00,75.3,58.5,30.05,NNW,348,2.0,2.0,56,0.00,,---,0.00,VWS V15.00,2015-08-27 23:39:00,
2015-08-27 19:44:00,75.1,58.3,30.05,North,350,0.0,1.0,56,0.00,,---,0.00,VWS V15.00,2015-08-27 23:44:00,
2015-08-27 19:49:00,74.8,58.1,30.05,NW,325,0.0,0.0,56,0.00,,---,0.00,VWS V15.00,2015-08-27 23:49:00,
2015-08-27 19:54:00,74.7,58.5,30.05,NNE,19,0.0,0.0,57,0.00,,---,0.00,VWS V15.00,2015-08-27 23:54:00,
2015-08-27 20:00:00,74.4,58.2,30.05,NNE,19,0.0,0.0,57,0.00,,---,0.00,VWS V15.00,2015-08-28 00:00:00,
2015-08-27 20:05:00,74.2,58.0,30.05,NNE,24,0.0,1.0,57,0.00,,---,0.00,VWS V15.00,2015-08-28 00:05:00,
2015-08-27 20:10:00,74.1,58.4,30.06,NNE,26,0.0,0.0,58,0.00,,---,0.00,VWS V15.00,2015-08-28 00:10:00,
2015-08-27 20:15:00,73.9,58.7,30.06,NNE,19,0.0,2.0,59,0.00,,---,0.00,VWS V15.00,2015-08-28 00:15:00,
2015-08-27 20:20:00,73.7,58.5,30.06,NNE,26,0.0,0.0,59,0.00,,---,0.00,VWS V15.00,2015-08-28 00:20:00,
2015-08-27 20:25:00,73.4,58.7,30.06,NNE,33,0.0,0.0,60,0.00,,---,0.00,VWS V15.00,2015-08-28 00:25:00,
2015-08-27 20:30:00,73.1,58.4,30.07,NNE,19,0.0,0.0,60,0.00,,---,0.00,VWS V15.00,2015-08-28 00:30:00,
2015-08-27 20:35:00,73.0,58.3,30.07,NNE,30,0.0,1.0,60,0.00,,---,0.00,VWS V15.00,2015-08-28 00:35:00,
2015-08-27 20:40:00,72.8,58.6,30.07,NNE,30,0.0,0.0,61,0.00,,---,0.00,VWS V15.00,2015-08-28 00:40:00,
2015-08-27 20:45:00,72.6,58.4,30.07,NNE,27,0.0,1.0,61,0.00,,---,0.00,VWS V15.00,2015-08-28 00:45:00,
2015-08-27 20:50:00,72.5,58.3,30.07,NE,38,0.0,2.0,61,0.00,,---,0.00,VWS V15.00,2015-08-28 00:50:00,
2015-08-27 20:55:00,72.3,58.1,30.08,NE,50,0.0,0.0,61,0.00,,---,0.00,VWS V15.00,2015-08-28 00:55:00,
2015-08-27 21:00:00,72.1,57.9,30.08,NNE,15,0.0,0.0,61,0.00,,---,0.00,VWS V15.00,2015-08-28 01:00:00,
2015-08-27 21:05:00,71.9,57.7,30.08,NW,318,0.0,0.0,61,0.00,,---,0.00,VWS V15.00,2015-08-28 01:05:00,
2015-08-27 21:10:00,71.8,58.1,30.08,NE,42,0.0,0.0,62,0.00,,---,0.00,VWS V15.00,2015-08-28 01:10:00,
2015-08-27 21:15:00,71.6,57.9,30.09,NE,42,0.0,0.0,62,0.00,,---,0.00,VWS V15.00,2015-08-28 01:15:00,
2015-08-27 21:20:00,71.4,57.7,30.09,NE,42,0.0,0.0,62,0.00,,---,0.00,VWS V15.00,2015-08-28 01:20:00,
2015-08-27 21:25:00,71.2,58.0,30.09,NE,42,0.0,0.0,63,0.00,,---,0.00,VWS V15.00,2015-08-28 01:25:00,
2015-08-27 21:28:00,71.2,58.0,30.09,NE,41,0.0,0.0,63,0.00,,---,0.00,VWS V15.00,2015-08-28 01:28:00,
2015-08-27 21:33:00,71.0,57.8,30.09,NE,42,0.0,0.0,63,0.00,,---,0.00,VWS V15.00,2015-08-28 01:33:00,
2015-08-27 21:38:00,70.9,58.1,30.09,NE,41,0.0,0.0,64,0.00,,---,0.00,VWS V15.00,2015-08-28 01:38:00,
2015-08-27 21:43:00,70.9,58.6,30.10,NE,41,1.0,1.0,65,0.00,,---,0.00,VWS V15.00,2015-08-28 01:43:00,
2015-08-27 21:48:00,70.8,58.0,30.10,NE,41,0.0,0.0,64,0.00,,---,0.00,VWS V15.00,2015-08-28 01:48:00,
2015-08-27 21:53:00,70.7,57.9,30.10,NE,42,0.0,0.0,64,0.00,,---,0.00,VWS V15.00,2015-08-28 01:53:00,
2015-08-27 21:58:00,70.5,57.8,30.10,NE,41,0.0,0.0,64,0.00,,---,0.00,VWS V15.00,2015-08-28 01:58:00,
2015-08-27 22:03:00,70.2,57.9,30.10,NE,41,0.0,0.0,65,0.00,,---,0.00,VWS V15.00,2015-08-28 02:03:00,
2015-08-27 22:08:00,70.1,57.8,30.10,NE,41,0.0,0.0,65,0.00,,---,0.00,VWS V15.00,2015-08-28 02:08:00,
2015-08-27 22:13:00,69.9,57.6,30.10,NE,41,0.0,0.0,65,0.00,,---,0.00,VWS V15.00,2015-08-28 02:13:00,
2015-08-27 22:18:00,69.7,57.8,30.10,NE,41,0.0,0.0,66,0.00,,---,0.00,VWS V15.00,2015-08-28 02:18:00,
2015-08-27 22:23:00,69.5,57.7,30.10,NE,41,0.0,0.0,66,0.00,,---,0.00,VWS V15.00,2015-08-28 02:23:00,
2015-08-27 22:28:00,69.4,57.6,30.10,NE,41,0.0,0.0,66,0.00,,---,0.00,VWS V15.00,2015-08-28 02:28:00,
2015-08-27 22:33:00,69.2,57.4,30.11,NE,41,0.0,0.0,66,0.00,,---,0.00,VWS V15.00,2015-08-28 02:33:00,
2015-08-27 22:38:00,69.0,57.6,30.10,NE,41,0.0,0.0,67,0.00,,---,0.00,VWS V15.00,2015-08-28 02:38:00,
2015-08-27 22:43:00,68.8,57.4,30.10,NE,41,0.0,0.0,67,0.00,,---,0.00,VWS V15.00,2015-08-28 02:43:00,